EW5610 Lyme CT US current weather conditions

sailwx.info

Wind from 199 at 2 knots gusting 7

Air temperature 23.9° C
Dewpoint 22.7° C

Last reported at 2020-Jul-08 14:01 UTC.
Time now 2020-Jul-08 15:02 UTC

Location: N 41°25' W 072°22'.
View on Google Maps.

See reports from other nearby stations

  
Tides and Currents Weather Stations Pressure Air Temp Water Temp Dewpoint Dewpoint Depression Visibility Wind Speed Wind Dir Waves Ship Positions
date/time (UTC)wind fromknots sea level pressurealtimeterstation pressurevisibilityair tempwater tempwave heightnotes
2020-Jul-08 14:01 199 2 gusting 7 23.9
2020-Jul-08 13:45 213 1 gusting 10 23.9
2020-Jul-08 13:30 202 3 gusting 8 23.3
2020-Jul-08 13:15 187 1 gusting 8 22.8
2020-Jul-08 13:00 177 4 gusting 9 22.8
2020-Jul-08 12:45 155 1 gusting 6 22.8
2020-Jul-08 12:30 153 3 gusting 8 22.8
2020-Jul-08 12:15 145 2 gusting 6 22.2
2020-Jul-08 12:00 143 1 gusting 7 22.2
2020-Jul-08 11:45 138 4 gusting 8 22.2
2020-Jul-08 11:30 130 22.2
2020-Jul-08 11:16 116 3 gusting 9 22.2
2020-Jul-08 11:02 109 22.2
2020-Jul-08 10:47 108 22.2
2020-Jul-08 10:32 105 0 gusting 6 22.2
2020-Jul-08 10:16 105 22.2
2020-Jul-08 10:01 105 21.7
2020-Jul-08 09:48 105 21.7
2020-Jul-08 09:31 104 1 gusting 8 21.7
2020-Jul-08 09:16 095 21.7
2020-Jul-08 09:01 076 21.7
2020-Jul-08 08:47 069 21.1
2020-Jul-08 08:31 069 20.6
2020-Jul-08 08:15 069 20.6
2020-Jul-08 08:01 069 20.0
2020-Jul-08 07:46 069 20.0
2020-Jul-08 07:31 069 20.0
2020-Jul-08 07:16 069 20.0
2020-Jul-08 07:01 069 19.4
2020-Jul-08 06:47 069 19.4
2020-Jul-08 06:30 069 19.4
2020-Jul-08 06:17 069 19.4
2020-Jul-08 06:01 069 19.4
2020-Jul-08 05:46 069 19.4
2020-Jul-08 05:30 069 19.4
2020-Jul-08 05:16 069 19.4
2020-Jul-08 05:01 069 19.4
2020-Jul-08 04:46 069 19.4
2020-Jul-08 04:30 069 19.4
2020-Jul-08 04:15 069 19.4
2020-Jul-08 04:00 069 19.4
2020-Jul-08 03:46 069 19.4
2020-Jul-08 03:31 069 19.4
2020-Jul-08 03:16 069 18.9
2020-Jul-08 03:00 070 0 gusting 3 18.9
2020-Jul-08 02:45 070 18.9
2020-Jul-08 02:30 071 18.9
2020-Jul-08 02:16 071 18.9
2020-Jul-08 02:00 071 18.9
2020-Jul-08 01:46 077 18.9
2020-Jul-08 01:30 077 18.9
2020-Jul-08 01:15 078 18.9
2020-Jul-08 01:00 078 18.9
2020-Jul-08 00:45 078 18.9
2020-Jul-08 00:31 078 18.3
2020-Jul-08 00:15 084 18.3
2020-Jul-08 00:01 087 18.3
2020-Jul-07 23:46 088 18.9
2020-Jul-07 23:30 088 18.9
2020-Jul-07 23:15 092 18.9
2020-Jul-07 23:00 092 18.9
2020-Jul-07 22:45 092 18.9
2020-Jul-07 22:30 102 18.9
2020-Jul-07 22:15 102 18.9
2020-Jul-07 22:00 105 0 gusting 4 18.9
2020-Jul-07 21:45 110 19.4
2020-Jul-07 21:31 111 19.4
2020-Jul-07 21:15 110 18.9
2020-Jul-07 21:01 109 0 gusting 4 18.9
2020-Jul-07 20:46 123 0 gusting 6 18.9
2020-Jul-07 20:30 115 0 gusting 7 18.9
2020-Jul-07 17:00 103 20.0
2020-Jul-07 16:45 107 0 gusting 6 19.4
2020-Jul-07 16:30 107 20.0
2020-Jul-07 16:15 107 20.0
2020-Jul-07 16:00 110 20.0
2020-Jul-07 13:17 126 18.9
2020-Jul-07 13:02 126 19.4
2020-Jul-07 12:46 126 18.9
2020-Jul-07 12:31 126 0 gusting 3 18.9
2020-Jul-07 12:16 126 18.9
2020-Jul-07 12:01 130 0 gusting 4 18.3
2020-Jul-07 11:46 134 18.3
2020-Jul-07 11:31 138 17.8
2020-Jul-07 11:16 138 17.8
2020-Jul-07 11:01 138 17.8
2020-Jul-07 10:47 138 17.8
2020-Jul-07 10:31 138 17.8
2020-Jul-07 10:16 139 17.8
2020-Jul-07 10:02 138 17.8
2020-Jul-07 09:46 138 17.8
2020-Jul-07 09:32 138 17.8
2020-Jul-07 09:16 138 17.8
2020-Jul-07 09:01 138 17.8
2020-Jul-07 08:46 138 17.8
2020-Jul-07 08:31 138 17.8
2020-Jul-07 08:16 138 17.8
2020-Jul-07 08:00 139 17.2
2020-Jul-07 07:46 138 17.8
2020-Jul-07 07:31 138 17.8
2020-Jul-07 07:16 138 17.8
2020-Jul-07 07:02 138 17.8
2020-Jul-07 06:46 138 17.8
2020-Jul-07 06:31 138 17.8
2020-Jul-07 06:16 138 17.8
2020-Jul-07 06:01 139 17.8
2020-Jul-07 05:46 140 17.8
2020-Jul-07 05:32 142 18.3
2020-Jul-07 05:15 142 18.3
2020-Jul-07 05:01 142 18.3
2020-Jul-07 04:45 142 18.3
2020-Jul-07 04:31 142 18.3
2020-Jul-07 04:15 142 18.3
2020-Jul-07 04:01 142 18.3
2020-Jul-07 03:45 142 18.9
2020-Jul-07 03:31 142 18.9
2020-Jul-07 03:15 142 0 gusting 5 18.9
2020-Jul-07 03:00 142 18.9
2020-Jul-07 02:45 142 18.9
2020-Jul-07 02:31 142 18.9
2020-Jul-07 02:15 142 18.9
2020-Jul-07 02:00 142 18.9
2020-Jul-07 01:45 142 18.9
2020-Jul-07 01:30 142 18.9
2020-Jul-07 01:16 142 18.9
2020-Jul-07 01:00 144 19.4
2020-Jul-07 00:45 148 19.4
2020-Jul-07 00:31 148 19.4
2020-Jul-07 00:15 150 19.4
2020-Jul-07 00:00 154 20.0
2020-Jul-06 23:46 153 20.6
2020-Jul-06 23:30 153 20.6
2020-Jul-06 23:15 153 20.6
2020-Jul-06 23:01 184 2 gusting 9 20.6
2020-Jul-06 22:45 126 1 gusting 5 20.6
2020-Jul-06 22:30 112 0 gusting 9 21.1
2020-Jul-06 22:15 150 1 gusting 6 21.1
2020-Jul-06 22:00 167 2 gusting 6 21.7
2020-Jul-06 21:45 157 22.2
2020-Jul-06 21:30 118 1 gusting 6 22.2
2020-Jul-06 21:15 089 22.8
2020-Jul-06 21:00 080 0 gusting 9 23.9
2020-Jul-06 20:45 083 3 gusting 7 24.4
2020-Jul-06 20:30 177 1 gusting 8 25.0
2020-Jul-06 20:15 159 0 gusting 8 24.4
2020-Jul-06 20:00 155 3 gusting 9 24.4
2020-Jul-06 19:45 136 2 gusting 9 25.0
2020-Jul-06 19:30 187 1 gusting 7 25.0
2020-Jul-06 19:15 142 0 gusting 6 25.6
2020-Jul-06 19:00 175 0 gusting 7 25.0
2020-Jul-06 18:45 202 3 gusting 10 25.0
2020-Jul-06 18:30 113 2 gusting 8 25.6
2020-Jul-06 18:15 151 0 gusting 8 25.6
2020-Jul-06 18:00 175 3 gusting 7 26.1
2020-Jul-06 17:45 213 1 gusting 5 27.2
2020-Jul-06 17:30 219 3 gusting 12 27.2
2020-Jul-06 17:15 215 3 gusting 8 28.9
2020-Jul-06 17:01 196 31.7
2020-Jul-06 16:48 196 30.6
2020-Jul-06 16:31 196 31.1
2020-Jul-06 16:18 195 30.0
2020-Jul-06 16:01 195 30.0
2020-Jul-06 15:46 194 29.4
2020-Jul-06 15:31 194 30.0
2020-Jul-06 15:16 194 29.4
2020-Jul-06 15:01 194 29.4